Simultaneous Nadir Overpasses (SNOs) Predictions

Prediction of SNOs between AQUA and NOAA-19 Satellite Orbit:

Table of predicted SNOs for the next 14.0 days since TLE Epoch: 1/10/2020
Index Date (AQUA) Time (AQUA) Lat,Lon (AQUA) SZA (AQUA ) Date (NOAA-19) Time (NOAA-19) Lat,Lon (NOAA-19) SZA (NOAA-19 ) Distance(km) Time Diff (sec)
1 01/12/2020 23:35:04 80.03, 155.28 103.11 01/12/2020 23:34:22 80.05, 155.38 103.14 2.95 42
2 01/13/2020 00:24:31 -80.07, -37.38 76.84 01/13/2020 00:25:18 -80.05, -37.37 76.87 1.80 47
3 01/15/2020 05:08:48 -80.02,-108.02 77.28 01/15/2020 05:07:39 -80.04,-107.99 77.24 3.02 69
4 01/15/2020 05:58:16 80.05, 59.34 102.77 01/15/2020 05:58:43 80.05, 59.36 102.76 0.53 27
5 01/17/2020 11:32:00 -80.03, 156.05 77.66 01/17/2020 11:32:00 -80.05, 156.10 77.65 2.18 0
6 01/19/2020 17:05:45 80.03,-107.35 101.90 01/19/2020 17:05:25 80.03,-107.44 101.92 1.75 20
7 01/19/2020 17:55:12 -80.05, 60.09 78.07 01/19/2020 17:56:21 -80.06, 60.19 78.10 1.99 69
8 01/21/2020 22:39:29 -80.01, -10.62 78.60 01/21/2020 22:38:43 -80.02, -10.75 78.56 3.03 46
9 01/21/2020 23:28:57 80.05, 156.63 101.47 01/21/2020 23:29:45 80.05, 156.80 101.43 3.46 48
10 01/24/2020 04:13:14 80.02, 85.86 100.92 01/24/2020 04:12:06 80.02, 86.00 100.94 2.76 68




NCC Satellite Simultaneous Nadir Overpasses (SNOs) Prediction Service
